Time,TemperatureF,DewpointF,PressureIn,WindDirection,WindDirectionDegrees,WindSpeedMPH,WindSpeedGustMPH,Humidity,HourlyPrecipIn,Conditions,Clouds,dailyrainin,SoftwareType,DateUTC
2013-05-15 00:01:00,59.8,44.5,30.03,ESE,113,0.0,0.0,57,0.00,,,0.00,WUHU216HW,2013-05-15 04:01:00,
2013-05-15 00:02:00,59.8,44.5,30.03,ESE,113,0.0,0.0,57,0.00,,,0.00,WUHU216HW,2013-05-15 04:02:00,
2013-05-15 00:07:00,59.8,44.5,30.03,ESE,113,0.0,0.0,57,0.00,,,0.00,WUHU216HW,2013-05-15 04:07:00,
2013-05-15 00:30:00,59.0,44.7,30.03,SE,135,0.0,0.0,59,0.00,,,0.00,WUHU216HW,2013-05-15 04:30:00,
2013-05-15 00:35:00,59.0,44.7,30.03,SE,135,0.0,0.0,59,0.00,,,0.00,WUHU216HW,2013-05-15 04:35:00,
2013-05-15 00:59:00,58.5,44.2,30.03,SE,135,0.2,0.2,59,0.00,,,0.00,WUHU216HW,2013-05-15 04:59:00,
2013-05-15 01:04:00,58.5,44.2,30.03,SE,135,0.2,0.2,59,0.00,,,0.00,WUHU216HW,2013-05-15 05:04:00,
2013-05-15 01:30:00,58.0,44.2,30.03,SE,135,0.0,0.0,60,0.00,,,0.00,WUHU216HW,2013-05-15 05:30:00,
2013-05-15 01:35:00,58.0,44.2,30.03,SE,135,0.0,0.0,60,0.00,,,0.00,WUHU216HW,2013-05-15 05:35:00,
2013-05-15 01:59:00,57.4,43.8,30.03,ESE,113,0.0,0.0,60,0.00,,,0.00,WUHU216HW,2013-05-15 05:59:00,
2013-05-15 02:04:00,57.4,43.8,30.03,ESE,113,0.0,0.0,60,0.00,,,0.00,WUHU216HW,2013-05-15 06:04:00,
2013-05-15 02:29:00,56.9,43.6,30.03,SE,135,0.0,0.0,61,0.00,,,0.00,WUHU216HW,2013-05-15 06:29:00,
2013-05-15 02:34:00,56.9,43.6,30.03,SE,135,0.0,0.0,61,0.00,,,0.00,WUHU216HW,2013-05-15 06:34:00,
2013-05-15 02:59:00,56.2,44.1,30.02,SE,135,0.0,0.0,64,0.00,,,0.00,WUHU216HW,2013-05-15 06:59:00,
2013-05-15 03:04:00,56.2,44.1,30.02,SE,135,0.0,0.0,64,0.00,,,0.00,WUHU216HW,2013-05-15 07:04:00,
2013-05-15 03:29:00,55.6,44.4,30.01,SE,135,0.0,0.0,66,0.00,,,0.00,WUHU216HW,2013-05-15 07:29:00,
2013-05-15 03:35:00,55.6,44.4,30.01,SE,135,0.0,0.0,66,0.00,,,0.00,WUHU216HW,2013-05-15 07:35:00,
2013-05-15 04:00:00,55.8,44.6,30.01,South,180,0.0,0.0,66,0.00,,,0.00,WUHU216HW,2013-05-15 08:00:00,
2013-05-15 04:04:00,55.8,44.6,30.01,South,180,0.0,0.0,66,0.00,,,0.00,WUHU216HW,2013-05-15 08:04:00,
2013-05-15 04:30:00,55.8,44.6,30.00,SSW,203,0.2,0.2,66,0.00,,,0.00,WUHU216HW,2013-05-15 08:30:00,
2013-05-15 04:35:00,55.8,44.6,30.00,SSW,203,0.2,0.2,66,0.00,,,0.00,WUHU216HW,2013-05-15 08:35:00,
2013-05-15 05:00:00,55.8,45.4,30.00,SSW,203,0.2,0.2,68,0.00,,,0.00,WUHU216HW,2013-05-15 09:00:00,
2013-05-15 05:05:00,55.8,45.4,30.00,SSW,203,0.2,0.2,68,0.00,,,0.00,WUHU216HW,2013-05-15 09:05:00,
2013-05-15 05:30:00,56.2,46.2,30.00,SSW,203,0.9,0.9,69,0.00,,,0.00,WUHU216HW,2013-05-15 09:30:00,
2013-05-15 05:35:00,56.2,46.2,30.00,SSW,203,0.9,0.9,69,0.00,,,0.00,WUHU216HW,2013-05-15 09:35:00,
2013-05-15 06:00:00,56.3,46.3,30.01,SSE,158,0.0,0.0,69,0.00,,,0.00,WUHU216HW,2013-05-15 10:00:00,
2013-05-15 06:05:00,56.3,46.3,30.01,SSE,158,0.0,0.0,69,0.00,,,0.00,WUHU216HW,2013-05-15 10:05:00,
2013-05-15 06:30:00,56.3,46.7,30.01,SSE,158,0.0,0.0,70,0.00,,,0.00,WUHU216HW,2013-05-15 10:30:00,
2013-05-15 06:35:00,56.3,46.7,30.01,SSE,158,0.0,0.0,70,0.00,,,0.00,WUHU216HW,2013-05-15 10:35:00,
2013-05-15 06:59:00,56.7,47.4,30.01,WSW,248,0.2,0.2,71,0.00,,,0.00,WUHU216HW,2013-05-15 10:59:00,
2013-05-15 07:00:00,56.7,47.4,30.01,WSW,248,0.2,0.2,71,0.00,,,0.00,WUHU216HW,2013-05-15 11:00:00,
2013-05-15 07:05:00,56.7,47.4,30.01,WSW,248,0.2,0.2,71,0.00,,,0.00,WUHU216HW,2013-05-15 11:05:00,
2013-05-15 07:29:00,57.6,47.9,30.01,SSW,203,0.9,0.9,70,0.00,,,0.00,WUHU216HW,2013-05-15 11:29:00,
2013-05-15 07:35:00,57.6,47.9,30.01,SSW,203,0.9,0.9,70,0.00,,,0.00,WUHU216HW,2013-05-15 11:35:00,
2013-05-15 07:59:00,58.9,48.7,30.01,ESE,113,1.1,1.1,69,0.00,,,0.00,WUHU216HW,2013-05-15 11:59:00,
2013-05-15 08:00:00,58.9,48.7,30.01,ESE,113,1.1,1.1,69,0.00,,,0.00,WUHU216HW,2013-05-15 12:00:00,
2013-05-15 08:04:00,58.9,48.7,30.01,ESE,113,1.1,1.1,69,0.00,,,0.00,WUHU216HW,2013-05-15 12:04:00,
2013-05-15 08:30:00,60.5,49.5,30.01,ESE,113,1.1,1.1,67,0.00,,,0.00,WUHU216HW,2013-05-15 12:30:00,
2013-05-15 08:34:00,60.5,49.5,30.01,ESE,113,1.1,1.1,67,0.00,,,0.00,WUHU216HW,2013-05-15 12:34:00,
2013-05-15 08:59:00,61.6,50.5,30.01,SW,225,2.2,2.2,67,0.00,,,0.00,WUHU216HW,2013-05-15 12:59:00,
2013-05-15 09:05:00,61.6,50.5,30.01,SW,225,2.2,2.2,67,0.00,,,0.00,WUHU216HW,2013-05-15 13:05:00,
2013-05-15 09:30:00,63.4,51.8,30.00,WSW,248,0.2,0.2,66,0.00,,,0.00,WUHU216HW,2013-05-15 13:30:00,
2013-05-15 09:35:00,63.4,51.8,30.00,WSW,248,0.2,0.2,66,0.00,,,0.00,WUHU216HW,2013-05-15 13:35:00,
2013-05-15 09:59:00,65.5,53.4,29.99,SSW,203,0.4,0.4,65,0.00,,,0.00,WUHU216HW,2013-05-15 13:59:00,
2013-05-15 10:00:00,65.5,53.4,29.99,SSW,203,0.4,0.4,65,0.00,,,0.00,WUHU216HW,2013-05-15 14:00:00,
2013-05-15 10:05:00,65.5,53.4,29.99,SSW,203,0.4,0.4,65,0.00,,,0.00,WUHU216HW,2013-05-15 14:05:00,
2013-05-15 10:30:00,67.7,54.6,29.99,WSW,248,0.4,0.4,63,0.00,,,0.00,WUHU216HW,2013-05-15 14:30:00,
2013-05-15 10:35:00,67.7,54.6,29.99,WSW,248,0.4,0.4,63,0.00,,,0.00,WUHU216HW,2013-05-15 14:35:00,
2013-05-15 10:59:00,69.7,55.7,29.99,SSE,158,0.4,0.4,61,0.00,,,0.00,WUHU216HW,2013-05-15 14:59:00,
2013-05-15 11:00:00,69.7,55.7,29.99,SSE,158,0.4,0.4,61,0.00,,,0.00,WUHU216HW,2013-05-15 15:00:00,
2013-05-15 11:04:00,69.7,55.7,29.99,SSE,158,0.4,0.4,61,0.00,,,0.00,WUHU216HW,2013-05-15 15:04:00,
2013-05-15 11:29:00,71.6,57.5,29.99,NW,315,1.8,1.8,61,0.00,,,0.00,WUHU216HW,2013-05-15 15:29:00,
2013-05-15 11:35:00,71.6,57.5,29.99,NW,315,1.8,1.8,61,0.00,,,0.00,WUHU216HW,2013-05-15 15:35:00,
2013-05-15 12:00:00,73.6,57.9,29.98,SE,135,0.7,0.7,58,0.00,,,0.00,WUHU216HW,2013-05-15 16:00:00,
2013-05-15 12:05:00,73.6,57.9,29.98,SE,135,0.7,0.7,58,0.00,,,0.00,WUHU216HW,2013-05-15 16:05:00,
2013-05-15 12:30:00,76.3,59.4,29.97,SE,135,0.7,0.7,56,0.00,,,0.00,WUHU216HW,2013-05-15 16:30:00,
2013-05-15 12:34:00,76.3,59.4,29.97,SE,135,0.7,0.7,56,0.00,,,0.00,WUHU216HW,2013-05-15 16:34:00,
2013-05-15 12:59:00,77.8,60.3,29.96,West,270,1.1,1.1,55,0.00,,,0.00,WUHU216HW,2013-05-15 16:59:00,
2013-05-15 13:04:00,77.8,60.3,29.96,West,270,1.1,1.1,55,0.00,,,0.00,WUHU216HW,2013-05-15 17:04:00,
2013-05-15 13:29:00,80.8,61.5,29.94,SSE,158,0.9,0.9,52,0.00,,,0.00,WUHU216HW,2013-05-15 17:29:00,
2013-05-15 13:35:00,80.8,61.5,29.94,SSE,158,0.9,0.9,52,0.00,,,0.00,WUHU216HW,2013-05-15 17:35:00,
2013-05-15 13:59:00,83.9,61.5,29.93,SW,225,3.4,3.4,47,0.00,,,0.00,WUHU216HW,2013-05-15 17:59:00,
2013-05-15 14:05:00,83.9,61.5,29.93,SW,225,3.4,3.4,47,0.00,,,0.00,WUHU216HW,2013-05-15 18:05:00,
2013-05-15 14:30:00,87.1,63.2,29.91,West,270,0.7,0.7,45,0.00,,,0.00,WUHU216HW,2013-05-15 18:30:00,
2013-05-15 14:35:00,87.1,63.2,29.91,West,270,0.7,0.7,45,0.00,,,0.00,WUHU216HW,2013-05-15 18:35:00,
2013-05-15 15:00:00,89.6,62.1,29.90,NNW,338,0.4,0.4,40,0.00,,,0.00,WUHU216HW,2013-05-15 19:00:00,
2013-05-15 15:05:00,89.6,62.1,29.90,NNW,338,0.4,0.4,40,0.00,,,0.00,WUHU216HW,2013-05-15 19:05:00,
2013-05-15 15:30:00,91.1,62.7,29.89,SE,135,2.2,2.2,39,0.00,,,0.00,WUHU216HW,2013-05-15 19:30:00,
2013-05-15 15:35:00,91.1,62.7,29.89,SE,135,2.2,2.2,39,0.00,,,0.00,WUHU216HW,2013-05-15 19:35:00,
2013-05-15 15:59:00,91.1,62.7,29.88,WSW,248,1.8,1.8,39,0.00,,,0.00,WUHU216HW,2013-05-15 19:59:00,
2013-05-15 16:04:00,91.1,62.7,29.88,WSW,248,1.8,1.8,39,0.00,,,0.00,WUHU216HW,2013-05-15 20:04:00,
2013-05-15 16:29:00,90.0,61.7,29.87,NNW,338,2.0,2.0,39,0.00,,,0.00,WUHU216HW,2013-05-15 20:29:00,
2013-05-15 16:30:00,90.0,61.7,29.87,NNW,338,2.0,2.0,39,0.00,,,0.00,WUHU216HW,2013-05-15 20:30:00,
2013-05-15 16:34:00,90.0,61.7,29.87,NNW,338,2.0,2.0,39,0.00,,,0.00,WUHU216HW,2013-05-15 20:34:00,
2013-05-15 17:00:00,90.0,61.7,29.86,WSW,248,1.8,1.8,39,0.00,,,0.00,WUHU216HW,2013-05-15 21:00:00,
2013-05-15 17:05:00,90.0,61.7,29.86,WSW,248,1.8,1.8,39,0.00,,,0.00,WUHU216HW,2013-05-15 21:05:00,
2013-05-15 17:29:00,90.2,62.6,29.86,West,270,1.8,1.8,40,0.00,,,0.00,WUHU216HW,2013-05-15 21:29:00,
2013-05-15 17:30:00,90.2,62.6,29.86,West,270,1.8,1.8,40,0.00,,,0.00,WUHU216HW,2013-05-15 21:30:00,
2013-05-15 17:35:00,90.2,62.6,29.86,West,270,1.8,1.8,40,0.00,,,0.00,WUHU216HW,2013-05-15 21:35:00,
2013-05-15 18:00:00,89.3,61.8,29.85,SSW,203,1.3,1.3,40,0.00,,,0.00,WUHU216HW,2013-05-15 22:00:00,
2013-05-15 18:05:00,89.3,61.8,29.85,SSW,203,1.3,1.3,40,0.00,,,0.00,WUHU216HW,2013-05-15 22:05:00,
2013-05-15 18:30:00,88.2,61.6,29.85,SW,225,0.9,0.9,41,0.00,,,0.00,WUHU216HW,2013-05-15 22:30:00,
2013-05-15 18:35:00,88.2,61.6,29.85,SW,225,0.9,0.9,41,0.00,,,0.00,WUHU216HW,2013-05-15 22:35:00,
2013-05-15 19:00:00,87.3,61.5,29.84,WSW,248,0.4,0.4,42,0.00,,,0.00,WUHU216HW,2013-05-15 23:00:00,
2013-05-15 19:05:00,87.3,61.5,29.84,WSW,248,0.4,0.4,42,0.00,,,0.00,WUHU216HW,2013-05-15 23:05:00,
2013-05-15 19:30:00,86.2,61.1,29.84,SW,225,1.1,1.1,43,0.00,,,0.00,WUHU216HW,2013-05-15 23:30:00,
2013-05-15 19:35:00,86.2,61.1,29.84,SW,225,1.1,1.1,43,0.00,,,0.00,WUHU216HW,2013-05-15 23:35:00,
2013-05-15 20:00:00,85.3,60.9,29.85,WSW,248,0.0,0.0,44,0.00,,,0.00,WUHU216HW,2013-05-16 00:00:00,
2013-05-15 20:05:00,85.3,60.9,29.85,WSW,248,0.0,0.0,44,0.00,,,0.00,WUHU216HW,2013-05-16 00:05:00,
2013-05-15 20:30:00,84.1,60.4,29.85,WNW,293,0.0,0.0,45,0.00,,,0.00,WUHU216HW,2013-05-16 00:30:00,
2013-05-15 20:35:00,84.1,60.4,29.85,WNW,293,0.0,0.0,45,0.00,,,0.00,WUHU216HW,2013-05-16 00:35:00,
2013-05-15 20:59:00,82.3,60.0,29.85,South,180,0.4,0.4,47,0.00,,,0.00,WUHU216HW,2013-05-16 00:59:00,
2013-05-15 21:04:00,82.3,60.0,29.85,South,180,0.4,0.4,47,0.00,,,0.00,WUHU216HW,2013-05-16 01:04:00,
2013-05-15 21:29:00,81.2,60.8,29.87,SSW,203,0.7,0.7,50,0.00,,,0.00,WUHU216HW,2013-05-16 01:29:00,
2013-05-15 21:30:00,81.2,60.8,29.87,SSW,203,0.7,0.7,50,0.00,,,0.00,WUHU216HW,2013-05-16 01:30:00,
2013-05-15 21:34:00,81.2,60.8,29.87,SSW,203,0.7,0.7,50,0.00,,,0.00,WUHU216HW,2013-05-16 01:34:00,
2013-05-15 21:59:00,80.1,60.3,29.87,SE,135,0.0,0.0,51,0.00,,,0.00,WUHU216HW,2013-05-16 01:59:00,
2013-05-15 22:05:00,80.1,60.3,29.87,SE,135,0.0,0.0,51,0.00,,,0.00,WUHU216HW,2013-05-16 02:05:00,
2013-05-15 22:30:00,79.6,60.4,29.87,SE,135,0.4,0.4,52,0.00,,,0.00,WUHU216HW,2013-05-16 02:30:00,
2013-05-15 22:35:00,79.6,60.4,29.87,SE,135,0.4,0.4,52,0.00,,,0.00,WUHU216HW,2013-05-16 02:35:00,
2013-05-15 22:59:00,78.8,60.2,29.87,WSW,248,0.0,0.0,53,0.00,,,0.00,WUHU216HW,2013-05-16 02:59:00,
2013-05-15 23:00:00,78.8,60.2,29.87,WSW,248,0.0,0.0,53,0.00,,,0.00,WUHU216HW,2013-05-16 03:00:00,
2013-05-15 23:05:00,78.8,60.2,29.87,WSW,248,0.0,0.0,53,0.00,,,0.00,WUHU216HW,2013-05-16 03:05:00,
2013-05-15 23:30:00,78.1,60.1,29.87,SSW,203,0.0,0.0,54,0.00,,,0.00,WUHU216HW,2013-05-16 03:30:00,
2013-05-15 23:35:00,78.1,60.1,29.87,SSW,203,0.0,0.0,54,0.00,,,0.00,WUHU216HW,2013-05-16 03:35:00,